Content
SEND FEEDBACK

Daily
Averages
Monthly
Summary
Canada

VANCOUVER, BRITISH COLUMBIA


Home > North America > Canada > British Columbia
Elevation: 7 feet     Latitude: 49 11N     Longitude: 123 10W

WEATHER
 
SELECT A DAY
Number of Records: 254,178;   Date Range: 5/15/97 - 11/27/14
 
SHARE

PRINT THIS DATA

[ ← Previous Day ]
WEATHER ALMANAC - MAY 6, 2013
[ Next Day → ]
[ °C ]   °F
Weather ElementAverageHighLow
Temperature59.5 °F69.8 °F (7:35 pm)48.2 °F (4:55 am)
Dewpoint48.5 °F53.6 °F (8:35 am)44.6 °F (5:55 am)
Humidity68.6 %94 % (2:55 am)46 % (4:35 pm)
Barometer29.81 in29.86 in (7:55 am)29.74 in (8:15 pm)
Wind Speed2.1 mph6.9 mph (4:35 pm)
Weather ElementAverage
Visibility10 mi
Wind DirectionESE (108.4 °)

Weather ElementTotal
Precipitation---
Heating Degree Days6 (Base 65)
Growing Degree Days9 (Base 50)
Averaged from 69 records on May 6, 2013
WEATHER CONDITIONS BREAKOUT
WIND DIRECTION BREAKOUT
WEATHER BY HOUR - MAY 6, 2013
[ °C ]   °F
Local TimeTemperatureDewpointHumidityBarometerVisibilityWind DirectionWind SpeedGust SpeedPrecipitationEventsConditions
12:35 AM55.4 °F48.2 °F77 %29.80 in10.0 miCalmClear
12:55 AM55.4 °F48.2 °F77 %29.81 in10.0 miCalmClear
1:15 AM53.6 °F48.2 °F82 %29.81 in10.0 miCalmClear
1:35 AM57.2 °F46.4 °F67 %29.82 in10.0 miCalmClear
1:55 AM55.4 °F48.2 °F77 %29.82 in10.0 miCalmClear
2:15 AM53.6 °F48.2 °F82 %29.82 in10.0 miCalmClear
2:35 AM53.6 °F48.2 °F82 %29.82 in10.0 miCalmClear
2:55 AM50.0 °F48.2 °F94 %29.82 in10.0 miCalmClear
3:15 AM50.0 °F46.4 °F87 %29.82 in10.0 miCalmClear
3:55 AM50.0 °F46.4 °F87 %29.82 in10.0 miCalmClear
4:15 AM50.0 °F46.4 °F87 %29.83 in10.0 miCalmClear
4:35 AM50.0 °F46.4 °F87 %29.83 in10.0 miCalmClear
4:55 AM48.2 °F46.4 °F93 %29.83 in10.0 miCalmClear
5:15 AM48.2 °F46.4 °F93 %29.84 in10.0 miCalmClear
5:35 AM48.2 °F46.4 °F93 %29.84 in10.0 miCalmClear
5:55 AM48.2 °F44.6 °F87 %29.84 in10.0 miCalmClear
6:15 AM48.2 °F46.4 °F93 %29.84 in10.0 miCalmClear
6:35 AM48.2 °F46.4 °F93 %29.85 in9.0 miCalmClear
6:55 AM50.0 °F46.4 °F87 %29.84 in10.0 miCalmClear
7:15 AM51.8 °F48.2 °F88 %29.85 in10.0 miCalmClear
7:35 AM55.4 °F50.0 °F82 %29.85 in10.0 miCalmClear
7:55 AM55.4 °F50.0 °F82 %29.86 in10.0 miCalmClear
8:15 AM57.2 °F51.8 °F82 %29.85 in10.0 miCalmClear
8:35 AM57.2 °F53.6 °F88 %29.86 in10.0 miCalmClear
8:55 AM59.0 °F53.6 °F82 %29.85 in10.0 miNorth (350°)4.6 mphClear
9:15 AM59.0 °F53.6 °F82 %29.85 in8.0 miCalmClear
9:35 AM59.0 °F51.8 °F77 %29.86 in10.0 miCalmClear
9:55 AM60.8 °F51.8 °F72 %29.86 in10.0 miCalmClear
10:15 AM62.6 °F50.0 °F63 %29.86 in10.0 miNNW (340°)5.8 mphClear
10:35 AM62.6 °F50.0 °F63 %29.86 in10.0 miNorth (350°)5.8 mphClear
10:55 AM62.6 °F50.0 °F63 %29.86 in10.0 miNorth (350°)5.8 mphClear
11:15 AM62.6 °F50.0 °F63 %29.85 in10.0 miNorth (350°)5.8 mphClear
11:35 AM64.4 °F48.2 °F56 %29.85 in10.0 miNorth (360°)4.6 mphClear
11:55 AM64.4 °F48.2 °F56 %29.85 in10.0 miNorth (350°)5.8 mphClear
12:15 PM64.4 °F48.2 °F56 %29.84 in10.0 miCalmClear
12:35 PM64.4 °F50.0 °F59 %29.84 in10.0 miNorth (350°)5.8 mphClear
12:55 PM64.4 °F48.2 °F56 %29.83 in10.0 miNorth (350°)4.6 mphClear
1:15 PM64.4 °F48.2 °F56 %29.83 in10.0 miNorth (360°)3.5 mphClear
1:35 PM64.4 °F48.2 °F56 %29.83 in10.0 miNorth (10°)4.6 mphClear
1:55 PM66.2 °F50.0 °F56 %29.82 in10.0 miCalmClear
2:15 PM66.2 °F48.2 °F52 %29.82 in10.0 miNorth (350°)4.6 mphClear
2:35 PM66.2 °F48.2 °F52 %29.82 in10.0 miNorth (10°)5.8 mphClear
2:55 PM68.0 °F50.0 °F52 %29.81 in10.0 miNorth (10°)4.6 mphClear
3:15 PM68.0 °F48.2 °F49 %29.81 in10.0 miNorth (360°)4.6 mphClear
3:35 PM68.0 °F48.2 °F49 %29.80 in10.0 miNorth (350°)5.8 mphClear
3:55 PM66.2 °F48.2 °F52 %29.79 in10.0 miNorthClear
4:15 PM66.2 °F48.2 °F52 %29.79 in10.0 miNorth (350°)5.8 mphClear
4:35 PM68.0 °F46.4 °F46 %29.78 in10.0 miNorth (350°)6.9 mphClear
4:55 PM68.0 °F46.4 °F46 %29.78 in10.0 miNorth (350°)5.8 mphClear
5:15 PM66.2 °F48.2 °F52 %29.77 in10.0 miCalmClear
5:35 PM66.2 °F48.2 °F52 %29.77 in10.0 miCalmClear
5:55 PM66.2 °F48.2 °F52 %29.77 in10.0 miCalmClear
6:15 PM68.0 °F48.2 °F49 %29.76 in10.0 miCalmClear
6:35 PM66.2 °F48.2 °F52 %29.76 in10.0 miCalmClear
6:55 PM68.0 °F48.2 °F49 %29.75 in10.0 miCalmClear
7:15 PM66.2 °F50.0 °F56 %29.75 in10.0 miCalmClear
7:35 PM69.8 °F48.2 °F46 %29.75 in10.0 miSSE (160°)3.5 mphClear
7:55 PM68.0 °F48.2 °F49 %29.75 in10.0 miCalmClear
8:15 PM66.2 °F48.2 °F52 %29.74 in10.0 miSouth (170°)3.5 mphClear
8:35 PM64.4 °F48.2 °F56 %29.74 in10.0 miSSE (150°)3.5 mphClear
8:55 PM62.6 °F48.2 °F59 %29.75 in10.0 miSouth (170°)3.5 mphClear
9:35 PM59.0 °F48.2 °F67 %29.76 in10.0 miCalmClear
9:55 PM57.2 °F48.2 °F72 %29.77 in10.0 miSouth (170°)3.5 mphClear
10:15 PM57.2 °F48.2 °F72 %29.77 in10.0 miSSE (160°)3.5 mphClear
10:35 PM57.2 °F48.2 °F72 %29.77 in10.0 miSouth (170°)3.5 mphClear
10:55 PM55.4 °F48.2 °F77 %29.78 in10.0 miSouth (180°)5.8 mphClear
11:15 PM55.4 °F48.2 °F77 %29.78 in10.0 miSouth (170°)3.5 mphClear
11:35 PM55.4 °F48.2 °F77 %29.78 in10.0 miSSE (160°)3.5 mphClear
11:55 PM53.6 °F48.2 °F82 %29.78 in10.0 miSouth (170°)4.6 mphClear
Hourly data recorded from CZBB, located miles away from Vancouver, British Columbia







STORIES FROM OUR PARTNERS